Location: Pescara
(42.4670°N, 14.2170°E)
Time: 02:41:25
(UTC+02:00)

ISS - Pass Details

Date: 14 May 2021
Orbit: 417 x 422 km, 51.6° (Epoch: 14 June)

Event Time Altitude Azimuth Distance (km) Brightness Sun altitude
Rises 04:27:48 0° 304° (NW) 2,374 -0.1 -12.3°
Reaches altitude 10° 04:29:54 10° 305° (NW) 1,508 -1.1 -12.0°
Maximum altitude 04:33:17 86° 30° (NNE) 427 -3.7 -11.6°
Drops below altitude 10° 04:36:40 10° 123° (ESE) 1,501 -0.7 -11.1°
Sets 04:38:46 0° 124° (SE) 2,363 0.3 -10.8°
